Погода в Бугульме

Погода в Бугульме : погода сейчас, прогноз погоды и архив. Всё, что Вы хотите узнать о погоде в Бугульме!

Хотите узнать прогноз погоды в Бугульме? Тогда Вам сюда: Погода в Бугульме

Поиск расширенной информации на нашем сайте:

Полезная информация:

Другие новости

Новости СМИ2

Главная страница сайта

Новости сайта

03.07.2017

Напоминаем, что на нашем специализированном сайте Метеоцентр.Азия вы можете получить высокодетализированные автоматические прогнозы погоды по пунктам России, СНГ и мира в авиационном формате (включающие направление и скорость ветра, видимость, явления погоды, количество и форму облачности, нижнюю и верхнюю границу облачности).

Рекомендуем:

Погода в Бугульме - сегодня

Время (UTC), дата Ветер
(°,м/с) 
Видим.   Явления Облачность Т
(°С)
Тd
(°С)
f(%) Тe
(°С)
Pmin
(гПа)
dP
(гПа)
Po
(мм)
O2
(г/м3)
Тmin Tmax R s Состояние
почвы
09 15.09.19 280 (З) 10 км  слаб. ливневой дождь  10/8 210 м кучево-дожд., средняя 
[Cb calv|Ac und]
+11.2 +10.2 94 +12  1012  0.2  732  281           
12 15.09.19 240 (ЮЗ) 20000 м  {ливн. осадки}  10/8 420 м кучево-дожд., средняя 
[Cb calv|Ac und]
+12 +9.2 83 +13  1011.8  0.1  732  281           
15 15.09.19 230 (ЮЗ) 20000 м  в посл. час ливневой дождь  8/6 1200 м кучево-дожд., средняя, верхняя 
[Cb calv|Ac trans|Ci fib]
+9.2 +7.7 90 +9  1011.7  -0.5  732  284    +14.7     
18 15.09.19 220 (ЮЗ) н/о    н/о 
+7.7 +5.8 88 +7  1011.8  0.1  731  286           
21 15.09.19 230 (ЮЗ) 10 км    6/0 средняя, верхняя 
[Ac trans|Ci fib]
+6.9 +5.1 88 +6  1011.3  -0.6  731  286           
00 16.09.19 230 (ЮЗ) 10 км    4/0 верхняя 
[Ci fib]
+5.6 +4 89 +5  1010.8  -0.7  731  288           
03 16.09.19 230 (ЮЗ) 20000 м  в посл. час ливневой дождь  10/8 1200 м кучево-дожд., средняя 
[Cb calv|Ac und]
+6.7 +4.6 86 +5  1009.9  -0.7  730  286  +5.3        влажная 
06 16.09.19 230 (ЮЗ) 20000 м  {ливн. осадки}  6/3 1000 м средняя, верхняя 
[Sc|Ac trans|Ci fib]
+10.5 +5.9 73 +9  1008.5  -0.9  729  282           
09 16.09.19 210 (ЮЗ) 6-12{12}  20000 м    10/6 1200 м кучево-дожд., средняя 
[Cb calv|Ac und]
+11.8 +3.9 58 +11  1006.9  -1.4  728  281           
12 16.09.19 210 (ЮЗ) 8-12{16}  20000 м  в посл. час ливневой дождь  10/8 600 м кучево-дожд., средняя 
[Cb calv|Ac und]
+9.1 +6.2 82 +7  1005.4  -1.8  727  282           
15 16.09.19 210 (ЮЗ) 8-13{16}  10 км  слаб. ливневой дождь  10/8 330 м кучево-дожд., средняя 
[Cb calv|Ac und]
+8.7 +6.8 88 +6  1003.2  -2.1  725  282    +12.6  0.3     
18 16.09.19 210 (ЮЗ) 6-12{15}  10 км  слаб. дождь{ливн. осадки}  10/8 1380 м средняя 
[Sc|Ac und]
+9.1 +7.1 87 +7  1002.4  -0.8  725  281           
21 16.09.19 210 (ЮЗ) 5{12}  10 км  в посл. час ливневой дождь  10/6 1200 м кучево-дожд., средняя 
[Cb calv|Ac und]
+9.1 +7.6 90 +8  1000.9  -1.4  724  281           
00 17.09.19 220 (ЮЗ) 10 км  {ливн. осадки, дождь}  4/4 1000 м 
[Sc]
+8.1 +6.6 90 +7  1001.1  0.1  724  282           
03 17.09.19 230 (ЮЗ) 20000 м    4/3 600 м средняя, верхняя 
[Sc|Ac trans|Ci fib]
+7.6 +6 90 +6  1001.8  0.6  724  283  +7.3      влажная 
06 17.09.19 210 (ЮЗ) 20000 м    8/4 300 м средняя, верхняя 
[Sc|Ac trans|Ci fib]
+12.1 +7.8 75 +11  1002.3  725  278           
09 17.09.19 220 (ЮЗ) 7-12{12}  20000 м    10/8 600 м верхняя 
[Cu med, cong|Ci fib]
+14.6 +6.2 57 +14  1001.3  -0.7  725  276           
12 17.09.19 230 (ЮЗ) 5{14}  20000 м  в посл. час ливневой дождь  10/8 720 м кучево-дожд., средняя, верхняя 
[Cb calv|Ac trans|Ci fib]
+14.1 +6.5 60 +14  1000.8  -0.5  724  276           
15 17.09.19 200 (Ю) 20000 м    6/4 600 м кучево-дожд., верхняя 
[Cb calv|Ci fib]
+10.9 +6.1 72 +11  1000.6  -0.5  724  279    +16.4  0.5     
18 17.09.19 210 (ЮЗ) 10 км    10/3 1000 м верхняя 
[Sc|Ci fib]
+10.4 +5.7 73 +10  1001  0.2  724  280           
21 17.09.19 210 (ЮЗ) 5{10}  10 км  слаб. ливневой дождь  10/8 1000 м кучево-дожд., средняя 
[Cb calv|Ac und]
+9.8 +6.6 80 +9  1000.5  -0.5  724  280           
00 18.09.19 210 (ЮЗ) 3{10}  10 км  {ливн. осадки}  10/4 1000 м средняя, верхняя 
[Sc|Ac trans|Ci fib]
+9.2 +6.9 86 +9  1000.9  0.3  724  281           
03 18.09.19 220 (ЮЗ) 20000 м    6/4 1000 м кучево-дожд., верхняя 
[Cb calv|Ci fib]
+8.6 +7.3 92 +7  1000.9  -0.1  724  281  +8.6    0.5    влажная 
06 18.09.19 230 (ЮЗ) 20000 м    6/3 300 м средняя, верхняя 
[Sc diur, vesp|Ac trans|Ci fib]
+12.5 +6.5 67 +12  1001.6  1.1  725  278           
09 18.09.19 250 (З) 5{11}  20000 м    10/6 1380 м средняя, верхняя 
[Sc|Ac trans|Ci fib]
+13.9 +2.1 45 +13  1001.9  0.5  725  278           
Время (UTC), дата Ветер
(°,м/с) 
Видим.   Явления Облачность Т
(°С)
Тd
(°С)
f(%) Тe
(°С)
Pmin
(гПа)
dP
(гПа)
Po
(мм)
O2
(г/м3)
Тmin Tmax R s Состояние
почвы

Для получения пояснительной информации подведите курсор к названию столбца.

ПОГОДА в Бугульме - архив

Всё, что Вы хотите узнать о погоде в Бугульме - удобно и подробно!

Выберите нужную дату (начиная с 1 января 2018* года) и нажмите кнопку "Найти".
Будут отображены архивные сводки погоды по пункту Бугульма, начиная с указанной даты.


Отображать данные в формате CSV (для использования в таблицах Excel)


Внимание! Наш архив погоды предназначен исключительно для личного некоммерческого использования в познавательных целях. Если Вам необходимы официальные справки о состоянии погоды (для производственных, юридических, коммерческих и т.п. целей), обращайтесь в органы Росгидромета.

*Примечание: данная дата относится к архиву по метеостанциям СССР (Россия, СНГ, Балтия).
Архив по метеостанциям Зарубежной Европы и Азии (кроме Китая) хранится 10 дней, по другим регионам земного шара (Китай, Африка, Америка, Австралия, Океания) - 1 день.

Бугульма - район местоположения метеостанции


Название, широта, долгота, высота метеостанции:
Бугульма 54.6°ш. 52.8°д. 304 м над ур. моря [Российская Федерация]

Дополнительная информация

В oтличие oт бoльшинства пoгoдных сайтoв мы публикуем пoдрoбную метеoинфoрмацию в детальнoм прoфессиoнальнoм фoрмате.

Характеристики температуры и влажнoсти вoздуха измеряются на высoте 2 м в тени вдали oт зданий и деревьев.
Скoрoсть ветра измеряется на высoте 10 м (на урoвне рoста челoвека скoрoсть ветра ниже в 1.5-2 раза). Если метеoстанция нахoдится в гoрoде или в лесу, тo скoрoсть ветра занижена на 2-4 м/с пo сравнению с oткрытым местoм. Скoрoсть ветра над акватoриями крупных рек и oзёр, а также на вершинах хoлмoв на 2-5 м/с выше, чем в oбычных услoвиях.
Атмoсфернoе давление в разных тoчках местнoсти мoжет значительнo oтличаться oт давления на метеoстанции, в зависимoсти oт услoвий рельефа (при пoдъёме на 10 м давление пoнижается примернo на 1 мм рт.ст.).